Simultaneous Nadir Overpasses (SNOs) Predictions

Prediction of SNOs between GOES-17 and NOAA-19 Satellite Orbit:

Table of predicted SNOs for the next 14.0 days since TLE Epoch: 6/14/2024
Index Date Time (GOES-17) GOES-17 Lat,Lon NOAA-19 Lat,Lon Distance(km) Time Diff (sec)
1 06/15/2024 04:13:15 0.02,-104.70 0.01,-104.64 6.70 80
2 06/16/2024 04:00:58 0.02,-104.70 0.69,-101.65 347.29 80
3 06/18/2024 16:23:07 0.01,-104.72 0.35,-106.29 179.61 80
4 06/19/2024 16:08:09 0.01,-104.71 -0.33,-103.31 161.29 80
5 06/22/2024 04:30:16 0.00,-104.69 -0.72,-107.94 369.93 80
6 06/23/2024 04:17:58 0.01,-104.69 -0.03,-104.95 29.69 80
7 06/24/2024 04:03:01 0.02,-104.68 0.67,-101.96 310.80 80
8 06/26/2024 16:22:29 -0.04,-104.69 0.41,-106.60 218.20 80
9 06/27/2024 16:12:51 -0.04,-104.68 -0.29,-103.61 122.64 80
10 06/28/2024 16:00:34 -0.04,-104.68 -1.00,-100.63 463.58 80
